DECAYED

DMSP 5D-2 F13 DEB, 40674 (Decayed)

Orbit data source: Space-Track

DMSP 5D-2 F13 DEB, 40674 was space debris in SSO originally from a launch on Fri, 24 Mar 1995 UTC launched from the Air Force Western Test Range (AFWTR). Debris objects in space refer to the collection of defunct objects orbiting the Earth. Examples of debris include non-operational satellites, rocket bodies, and fragments generated from explosions, collisions, or faulty payload assembly.

Not visible in the next 10 days
Identifier
40674, 1995-015FN
Orbit
Decayed
Country
Flag of USUS
Related business
Manufacturer
Unknown
Mission
Decayed spacecraft
Bus & Motor
Unknown
Mass
Unknown
Launch date (UTC)
1995-03-24 (30 years ago)
Launch vehicle
Unknown
Launch site
Air Force Western Test Range (AFWTR)
Object type
Payload
Rocket body
Debris
Shape & HBR
Unknown
Radar Cross Section
Small (<0.1 m²)

Expand to show TLE details & history
Last TLE update: 1 year ago

TLE from 1 year ago
0 DMSP 5D-2 F13 DEB
1 40674U 95015FN  24105.06456425  .08945493  13825+0  51589-1 0  9994
2 40674  98.7127 203.4122 0030997 297.8357  61.9768 15.84787892467856
Epoch: 2024-04-14T01:32Z
TLE epoch observation values (Epoch: 2024-04-14T01:32:58.351Z)
Latitude
-0.00008°
Longitude
-22.55451°
Altitude
310.356 km
Speed
7.727 km/s
True Right ascension
13h 33m 38s
True Declination
0° 00' 00"
Sunlit
Object was in full shadow at epoch
Visualization orbit readout
Latitude
Unknown
Longitude
Unknown
Altitude
Unknown
Speed
Unknown
Apparent Right ascension
Unknown
Apparent Declination
Unknown
Sunlit
N/A
Visualization observer readout
Local Sidereal Time
12:50:54
Azimuth
Unknown
Elevation
Unknown
Doppler factor
Unknown
Orbital elements
Apogee altitude
334.608 km
Perigee altitude
293.121 km
Semi-major axis
6,692.001 km
Eccentricity
0.0031
Inclination
98.7127°
RAAN
203.4122°
Arg. of periapsis
297.8357°
True anomaly
62.29093°
Mean anomaly
61.9768°
Eccentric anomaly
62.13381°
Mean motion
3.96469 °/min
Orbital period
90.8 mins
BSTAR
0.051589
Loading maneuver chart data...
Computing Atmospheric mass density...

Documentation

Showing up to 5 results
|